Regional Weather Roundup
Issued by NWS San Diego, CA

Home | Current Version | Previous Version | Text Only | Print | Product List | Glossary On
Versions: 1 2 3 4 5 6 7 8 9 10 11 12 13 14 15 16 17 18 19 20 21 22 23 24 25 26 27 28 29 30 31 32 33 34 35 36 37 38 39 40 41 42 43 44 45 46 47 48 49 50
000
ASUS46 KSGX 242110
RWRSGX

SAN DIEGO HOURLY WEATHER ROUNDUP
NATIONAL WEATHER SERVICE SAN DIEGO CA
200 PM PDT THU APR 24 2014

NOTE: "FAIR" INDICATES FEW OR NO CLOUDS BELOW 12,000 FEET WITH NO
SIGNIFICANT WEATHER AND/OR OBSTRUCTIONS TO VISIBILITY.

CAZ042-043-060-061-PZZ750-775-242200-

GREATER SAN DIEGO AREA

CITY           SKY/WX    TMP DP  RH WIND       PRES   REMARKS
LINDBERGH FLD  MOSUNNY   68  52  56 SW12      29.98F
NATIONAL CITY    N/A     69  57  65 SW10      29.98F
CHULA VISTA      N/A     73  57  57 W3        29.91F
IMPERIAL BEACH MOSUNNY   68  55  63 SW9       29.98F
BROWN FIELD    SUNNY     70  46  42 W10G16    29.96F
MIRAMAR MCAS   MOSUNNY   73  48  41 W10       29.95F
MONTGOMERY FLD SUNNY     71  48  43 SW8       29.96F

$$

NORTH SAN DIEGO COUNTY

CITY           SKY/WX    TMP DP  RH WIND       PRES   REMARKS
CAMP PENDLETON SUNNY     72  50  45 SW12      29.94F
RED BEACH      FAIR      69  53  56 SW9       29.95F
OCEANSIDE AP   SUNNY     71  52  50 W9        29.94F
VISTA            N/A     72  52  50 CALM      29.93F
CARLSBAD       SUNNY     69  48  47 SW9       29.95F
DEL MAR          N/A     68  58  69 W1        29.97F
LA JOLLA SCRIP   N/A     64  58  81 SW1       29.94F
FALLBROOK        N/A     75  52  45 SW8       29.94F
ESCONDIDO        N/A     78  54  43 SW8       29.95F
SAN MARCOS       N/A     70  52  53 SW5       29.94F
POWAY            N/A     77  54  43 W6        29.96F
R. PENASQUITOS   N/A     74  51  45 SW10      29.96F

$$

EAST SAN DIEGO COUNTY

CITY           SKY/WX    TMP DP  RH WIND       PRES   REMARKS
RAMONA         SUNNY     75  49  39 W8G17     29.95F
GILLESPIE FLD  FAIR      77  48  36 SW12      29.96F
LA MESA          N/A     71  56  57 SW12      29.91S
JAMUL            N/A     74  52  46 W3        29.95S
DESCANSO N       N/A     72  47  40 W2        29.86S
MT. LAGUNA OBS   N/A     62  20  19 CALM      29.67
CAMPO            N/A     76  28  17 SW10      29.94S

$$

ORANGE COUNTY AND THE LOS ANGELES BASIN

CITY           SKY/WX    TMP DP  RH WIND       PRES   REMARKS
JOHN WAYNE AP  MOSUNNY   75  50  41 S12       29.94F
LAGUNA BEACH     N/A     69  59  69 SW2       29.93F
LAKE FOREST FR   N/A     79  46  30 NW1       29.84F
SANTA ANA        N/A     79  53  39 CALM      29.89F
HUNTINGTON BCH   N/A     71  58  63 S2        29.96
LOS ALAMITOS   MOSUNNY   75  51  42 SW12      29.94F
FULLERTON      SUNNY     78  46  32 W8        29.92F
LONG BEACH     SUNNY     73  47  39 S9        29.94F
L.A. AP        SUNNY     69  51  52 W15       29.96F
L.A. DOWNTOWN  SUNNY     75  50  41 MISG      29.94S

$$

THE INLAND EMPIRE

CITY           SKY/WX    TMP DP  RH WIND       PRES   REMARKS
CORONA         SUNNY     79  43  27 W13         N/A
CHINO          MOSUNNY   81  44  27 W9        29.93F
ONTARIO        MOSUNNY   81  39  22 W12       29.92F
SAN BERNARDINO SUNNY    N/A N/A N/A SW7       29.93F
RIVERSIDE AP   SUNNY     80  40  23 W8        29.92F
RIV CYN CREST    N/A     78  53  41 W7        29.90F
MORENO VALLEY    N/A     80  44  27 W1        28.04F
MARCH ARB      SUNNY     78  40  25 NW10      29.94F
HORSETHIEF CYN   N/A     78  39  24 NW9       29.93F
PERRIS           N/A     78  42  28 W3          N/A
MENIFEE          N/A     81  44  26 N1        29.97F
HEMET EAST       N/A     79  34  19 CALM      29.93F
FRENCH VALLEY  NOT AVBL
TEMECULA         N/A     79  52  39 SW12      29.90F

$$

SAN BERNARDINO AND RIVERSIDE COUNTY MOUNTAINS

CITY           SKY/WX    TMP DP  RH WIND       PRES   REMARKS
BIG BEAR AP    SUNNY     61  16  17 NE8       30.12F
ANGELUS OAKS     N/A     64  34  31 W3        29.90F
PINE COVE        N/A     58  35  41 NW3       29.95F

$$

SOUTHERN DESERT INCLUDING THE COACHELLA VALLEY

CITY           SKY/WX    TMP DP  RH WIND       PRES   REMARKS
PALM SPRINGS   SUNNY     88  18   7 N5        29.87F
THOUSAND PALMS   N/A     89  33  13 SE2       29.84F
PALM DESERT      N/A     91  29  11 CALM      27.89F
THERMAL        SUNNY     91  20   7 SE14      29.82F
BLYTHE         SUNNY     87  14   6 VRB3      29.87F
IMPERIAL AP    SUNNY     90  28  11 CALM      29.84F
EL CENTRO NAS  MOSUNNY   88  25  10 VRB7      29.85F
YUMA AZ        PTSUNNY   89  19   7 VRB5      29.87F
MEXICALI       MOSUNNY   88  25  10 SE7       29.87

$$

UPPER DESERT

CITY           SKY/WX    TMP DP  RH WIND       PRES   REMARKS
VICTORVILLE AP MOSUNNY   75  21  13 W7        29.98F
HESPERIA         N/A     78  31  18 W6        30.06F
APPLE VALLEY     N/A     78  26  14 CALM      30.02F
GRAY BUTTE AP  NOT AVBL
PALMDALE       SUNNY     77  26  15 MISG      29.97F
LANCASTER      SUNNY     78  28  16 W12G17    29.96F
EDWARDS AFB    MOSUNNY   77  23  13 W8        29.95F
DAGGETT        SUNNY     80  14   8 MISG      29.93F
29 PALMS N     SUNNY     81  15   8 SE8       29.99F
NEEDLES        SUNNY     89   8   5 SE8       29.87F

$$

REGIONAL REPORTS

CITY           SKY/WX    TMP DP  RH WIND       PRES   REMARKS
SANTA BARBARA  SUNNY     71  42  35 S7        29.96F
SANDBERG       SUNNY     64  35  34 N22G29    30.07F
MT. WILSON       N/A     64  39  39 SW8         N/A
LAS VEGAS NV   SUNNY     81  10   7 S10       29.87F
PHOENIX AZ     MOSUNNY   86  10   6 NW5       29.88F
TIJUANA        SUNNY     72  45  37 W13       29.99S
ENSENADA NW      N/A     65  32  29 W6        29.97F

$$

OFFSHORE ISLANDS

CITY           SKY/WX    TMP DP  RH WIND       PRES   REMARKS
CATALINA ARPT  SUNNY     69  47  45 VRB7      29.99F
SAN CLEMENTE I MOSUNNY   71  54  54 S6        29.98F
SAN NICOLAS IS MOSUNNY   65  53  65 N10G16    29.97F

$$

MARINE AND OFFSHORE BUOY REPORTS

STATION/POSITION SKY/WX   TEMP    WIND        PRES    SWELL
                          AIR SEA DIR/SP/G            HT/PER/DIR
                          (F)     (DEG/KT/KT) (MB)    (FT/S/D)
S CLEMENTE BASIN           62 65  240/  4/  6 1015.0F   7/280/12
SAN NICOLAS IS.               58                N/A     5/310/12
SO. S. ROSA ISLA           56 56  320/ 16/ 19 1015.4F   5/12
W. S. BARBARA CH           54 54  320/ 21/ 25 1014.8F   5/300/11
S. MONICA BASIN            61 64  280/  6/  8 1014.6F   3/180/14
S PEDRO CHANNEL               62                N/A     2/260/12
DANA POINT                    65                N/A     2/190/14
OCEANSIDE OFFSHR              65                N/A     2/210/14
TORREY PINES OTR              65                N/A     3/270/11
LA JOLLA 1                 63 64  250/  6/  7 1014.8F
MISSION BAY BUOY              64                N/A     3/260/12
SAN DIEGO BAY                 67              1015.1F
POINT LOMA SOUTH              65                N/A     3/270/12

$$




USA.gov is the U.S. government's official web portal to all federal, state and local government web resources and services.